Wind_Speed
47 45 47 45 38 40 33 31 16 19 20 19 28 30 33 35 35 46 46 43 31 27 21 17 13 12 13 13 14 16 17 17 18 22 24 24 29 28 29 31 33 35 37 39 40 40 40 40 41
46 38 36 39 38 43 43 23 15 15 18 20 25 28 32 32 38 46 44 43 35 29 24 17 13 10 9 10 11 14 14 15 16 19 22 23 26 25 26 29 31 30 32 33 34 35 37 37 38
42 41 40 45 38 34 28 19 16 14 17 19 24 30 31 30 40 46 43 41 39 31 25 17 13 9 8 7 8 10 13 15 17 19 18 20 21 23 24 25 26 28 28 29 30 31 33 34 36
44 45 42 33 37 34 20 21 22 17 16 18 20 26 27 35 39 44 45 39 38 32 27 19 15 12 9 7 7 8 10 13 14 17 17 18 20 22 23 24 26 26 28 29 30 33 35 36 36
48 46 40 41 41 26 24 21 23 19 17 16 20 27 34 38 39 41 47 50 37 30 28 22 16 13 10 8 7 7 7 8 9 11 14 15 17 17 18 19 19 22 24 26 28 28 28 28 29
49 50 48 39 37 32 28 25 22 21 19 17 21 28 34 37 32 40 44 41 46 34 28 22 18 12 10 10 9 7 6 4 6 8 10 12 14 15 16 17 18 20 21 22 22 23 25 26 27
53 54 57 47 39 33 30 25 24 22 22 20 22 32 35 28 29 37 38 42 41 36 28 25 20 14 12 12 11 9 8 6 5 4 6 7 9 12 13 14 16 17 18 19 21 23 24 25 26
60 53 52 51 48 39 27 20 27 24 24 21 25 34 31 28 28 36 33 37 42 35 30 26 22 16 11 11 11 12 10 9 8 8 8 8 10 11 13 14 16 17 18 19 21 22 22 23 25
62 57 57 49 41 29 28 24 30 28 28 32 26 34 25 24 28 29 28 35 40 41 27 22 22 20 15 11 9 9 8 9 9 8 9 9 10 11 13 14 16 18 20 22 23 24 25 26 27
58 63 61 53 42 40 31 30 27 31 31 26 27 22 28 23 24 23 25 33 40 32 24 22 18 20 18 13 13 12 10 9 9 8 9 9 10 11 13 15 17 19 20 22 23 25 26 27 28
60 57 55 51 46 34 35 27 29 31 34 26 25 31 30 23 22 18 23 29 31 42 32 18 16 16 14 15 14 14 13 13 14 14 13 13 11 11 12 13 13 14 16 18 20 22 23 25 27
63 56 40 46 47 44 38 34 30 30 23 26 29 33 34 19 21 19 21 26 30 35 35 20 14 14 13 14 16 18 19 19 19 19 19 18 18 19 20 19 19 20 20 21 21 21 22 23 23
64 53 49 46 45 40 26 27 28 34 34 35 34 39 24 18 22 20 27 32 30 38 25 20 16 16 16 18 18 21 21 23 24 24 23 23 24 24 25 27 27 26 26 26 27 26 26 26 26
69 62 56 61 50 52 45 38 33 39 31 29 31 25 18 18 22 25 27 26 30 26 25 30 22 18 17 16 15 19 21 21 24 26 26 27 30 29 28 30 31 32 33 34 34 34 34 34 35
61 72 59 63 49 40 38 39 42 43 32 33 25 20 20 21 24 26 24 31 31 22 29 36 27 24 22 21 21 23 24 27 28 31 32 34 35 37 35 38 36 35 35 37 39 40 41 42 43
69 62 66 51 51 47 45 46 43 42 39 31 32 27 32 30 30 31 27 29 25 27 37 35 27 26 24 22 24 28 33 31 34 36 37 37 39 41 41 40 41 41 39 38 39 40 42 43 44
71 63 62 61 46 51 54 57 46 44 44 44 43 43 38 44 43 28 32 34 34 32 32 33 28 29 29 27 30 33 37 37 36 38 38 41 44 45 45 43 44 45 44 44 44 42 44 44 45
77 69 61 55 58 52 57 60 57 46 46 49 50 47 43 48 35 39 32 42 41 32 35 36 31 28 33 35 34 38 45 47 44 41 41 42 44 48 50 44 46 49 49 48 48 49 49 48 47
76 76 77 69 63 58 60 56 55 51 49 46 42 43 39 41 45 36 40 39 36 40 36 33 31 28 37 41 39 42 44 47 45 46 48 48 54 55 52 45 55 53 52 52 52 52 52 53 51
77 76 76 79 70 68 57 51 57 56 56 53 53 48 45 41 40 44 37 35 37 40 37 35 34 32 44 47 45 51 53 55 49 48 51 53 56 58 55 56 59 57 57 53 51 50 54 54 58
85 85 82 82 75 67 71 66 56 55 58 53 50 49 46 45 44 42 43 38 36 37 38 39 44 51 52 51 48 53 58 58 54 54 55 57 60 62 61 61 62 59 56 57 52 58 66 62 65
98 91 88 89 89 77 71 66 60 54 54 52 55 56 55 58 55 55 52 52 48 52 53 54 52 52 51 53 53 56 64 60 59 62 63 63 67 65 62 66 65 62 59 64 64 67 68 69 70
97 96 94 94 93 85 82 69 64 62 57 59 61 58 54 54 57 54 54 56 56 52 51 53 55 52 52 55 58 62 66 65 65 65 69 69 72 74 72 70 71 71 69 70 71 74 78 78 77
98 96 94 97 94 90 85 83 78 72 76 72 74 68 66 65 61 60 63 63 64 65 62 58 59 62 66 66 62 66 68 69 68 73 77 78 81 81 77 75 77 78 76 79 80 83 85 87 87
103 101 96 97 97 88 87 84 73 75 79 81 73 73 76 73 65 61 62 64 66 69 67 70 72 71 70 69 69 70 76 70 73 77 81 85 86 85 85 83 86 86 87 89 91 89 94 93 92
97 100 105 100 94 83 89 88 77 78 79 76 77 78 78 73 73 72 66 65 69 68 70 70 73 76 74 72 75 77 79 79 80 82 84 88 87 90 87 89 92 93 95 97 97 98 99 95 97
104 106 101 101 98 95 90 82 77 75 76 77 75 77 81 79 80 78 77 72 72 73 72 70 71 73 72 72 80 81 86 86 85 88 93 92 92 92 94 95 96 99 100 99 100 102 104 102 100
106 108 110 109 107 103 95 90 85 79 77 76 79 80 80 79 77 74 75 77 80 80 79 76 78 73 75 80 82 87 88 91 94 95 98 100 97 97 101 102 102 104 103 104 105 105 107 105 107
110 108 107 108 107 101 102 95 95 94 95 93 90 85 86 87 90 89 85 86 85 84 79 79 79 81 85 89 91 95 99 100 99 99 100 102 102 103 106 107 107 108 110 108 110 110 110 108 110
111 109 113 112 105 105 100 95 95 99 100 98 94 92 92 97 93 88 85 85 83 83 85 84 84 89 94 95 100 105 106 106 103 104 106 106 104 106 109 110 111 113 114 114 112 114 113 114 116
Wind_Direction
215 219 224 227 238 242 245 248 270 272 286 293 295 305 315 327 332 331 336 345 350 348 337 325 307 293 282 271 260 253 255 257 251 253 254 258 257 261 263 265 264 264 265 266 267 271 272 273 275
226 224 230 235 240 249 242 245 260 276 283 292 302 314 315 317 337 332 339 345 352 355 343 338 322 309 285 275 267 261 259 254 253 252 253 254 259 261 258 258 261 265 267 269 270 271 273 277 277
228 229 232 236 230 236 240 246 255 269 273 298 313 312 307 322 333 330 334 343 352 358 348 348 340 323 308 296 282 279 268 258 255 253 254 250 255 259 261 261 261 264 266 267 271 273 276 279 280
216 225 228 233 236 245 236 254 256 252 277 299 315 304 306 327 325 327 332 341 356 360 356 354 355 350 339 323 308 292 273 261 259 255 254 252 251 253 261 265 265 270 272 274 276 276 277 282 284
216 227 233 238 244 233 242 255 242 264 270 291 305 306 313 320 322 326 336 345 354 1 359 356 3 6 356 354 339 320 308 297 282 269 263 261 266 271 273 272 272 273 276 281 283 284 284 286 290
223 230 231 240 237 238 244 256 272 256 270 286 290 308 311 308 324 326 337 349 352 355 3 359 0 8 17 19 13 359 344 326 301 283 272 270 273 280 278 279 283 287 288 289 291 292 294 297 298
223 228 231 238 238 239 242 236 263 251 269 270 287 299 300 307 324 326 336 346 356 351 1 2 360 4 24 32 32 27 19 12 356 333 302 298 295 296 288 291 296 298 300 299 297 298 299 300 299
221 226 231 236 242 235 234 233 241 251 274 274 277 287 294 307 321 323 331 345 347 352 354 359 1 2 15 38 44 46 41 28 15 1 345 330 322 316 314 310 306 301 302 302 301 299 299 301 301
220 223 228 231 225 233 223 234 247 258 273 276 283 285 287 301 315 321 338 344 351 350 350 359 357 360 3 13 26 41 46 44 40 27 13 356 344 335 325 318 317 318 316 312 308 307 307 306 306
220 221 224 233 238 237 234 229 250 264 265 270 276 284 294 297 306 326 336 341 343 357 354 357 359 2 5 19 24 25 22 18 18 16 13 3 354 344 334 330 327 325 321 317 314 311 311 311 311
217 225 224 227 230 235 239 242 250 255 256 267 268 287 288 291 302 312 334 337 345 343 347 357 17 17 15 21 29 29 27 27 28 23 16 11 358 348 343 340 337 335 334 331 327 324 322 321 320
221 221 222 225 224 224 233 246 243 249 246 266 278 280 278 286 287 305 326 330 334 339 340 340 3 11 17 26 27 31 28 25 17 9 5 357 350 342 338 336 333 327 323 322 323 324 324 322 322
222 219 230 234 220 222 224 230 246 249 254 259 269 266 260 275 285 301 313 319 327 331 335 337 340 357 5 15 25 24 24 23 19 14 9 1 352 345 338 334 327 321 317 313 314 314 313 314 314
222 224 234 235 226 234 236 241 240 241 242 252 247 240 268 283 289 292 305 315 321 321 330 334 327 338 350 349 356 4 9 7 7 4 2 359 358 351 346 339 332 327 319 311 309 309 309 308 309
220 223 233 240 227 221 227 229 236 240 256 246 242 245 275 278 279 284 296 308 307 302 314 320 318 315 327 341 346 349 349 354 354 356 352 352 348 349 339 343 338 335 329 324 318 315 314 312 310
219 218 222 224 225 229 232 238 236 242 239 235 262 261 279 287 282 281 292 298 300 301 309 317 314 313 312 327 341 343 348 347 345 347 343 347 343 345 343 337 336 331 330 328 324 320 319 316 314
223 225 225 230 225 231 229 234 233 236 241 252 263 270 278 282 274 269 287 296 294 291 297 307 305 305 311 319 326 331 335 333 332 337 341 339 338 337 336 333 330 328 324 320 319 315 316 316 313
232 224 226 223 226 231 234 230 242 233 244 247 253 259 267 267 261 279 284 292 290 282 294 299 298 292 307 313 316 324 326 331 330 329 331 331 330 331 330 327 329 324 321 318 314 312 311 309 306
230 231 228 224 229 231 236 237 240 232 242 251 258 255 264 266 272 268 281 280 275 279 283 282 285 287 300 303 305 314 321 323 323 325 325 325 325 327 326 325 324 321 317 314 311 310 310 306 306
229 225 229 230 231 224 228 232 237 240 241 247 254 262 260 261 257 271 279 279 277 279 277 281 277 283 300 299 299 305 313 315 315 321 320 321 321 324 324 320 322 321 316 313 310 311 313 311 306
229 225 228 227 231 230 233 243 243 238 236 242 254 257 249 252 263 271 271 264 268 274 279 281 282 287 291 296 297 303 310 311 310 313 317 317 317 318 319 320 322 321 317 316 311 313 313 310 311
230 231 231 234 239 235 234 241 238 241 245 247 254 262 258 264 270 274 271 270 273 278 278 282 280 286 288 293 294 303 307 307 308 309 310 315 317 313 311 317 317 317 315 313 311 309 314 310 309
231 234 235 237 239 238 238 239 246 252 255 253 258 255 257 263 265 269 265 267 271 277 277 280 280 282 287 294 292 300 305 302 301 306 310 309 316 314 311 310 314 315 312 312 311 311 313 308 311
232 234 237 240 244 244 244 244 248 254 255 255 257 255 264 268 268 266 268 270 272 276 275 277 281 283 287 290 294 300 300 300 302 303 305 306 310 313 311 314 314 312 311 314 309 308 309 311 306
231 234 238 242 245 249 249 251 254 256 257 256 253 256 262 265 264 264 265 265 267 270 271 275 280 282 285 286 287 295 302 294 299 304 303 306 308 309 310 308 310 311 311 309 310 307 308 306 306
231 234 237 241 243 245 249 250 251 251 248 251 253 255 259 262 261 262 267 269 270 274 279 278 280 284 284 283 289 293 300 297 295 300 303 303 304 307 306 308 308 308 307 307 306 305 306 304 305
233 233 237 237 239 241 242 243 244 248 252 254 255 257 260 264 258 262 267 272 269 275 274 275 277 280 279 281 289 292 293 296 292 296 301 302 303 304 303 304 305 307 305 303 304 306 305 303 304
234 236 237 240 242 242 243 245 246 249 252 249 254 256 259 260 261 263 263 270 275 272 273 273 278 275 277 282 286 289 292 295 295 296 300 301 300 302 303 302 302 303 303 302 301 302 304 303 304
232 232 238 240 242 242 242 244 247 248 254 256 258 261 261 260 266 269 271 274 272 271 273 271 273 274 279 283 286 291 291 293 293 294 297 297 298 298 299 301 300 301 301 301 302 302 302 301 302
230 230 234 238 243 247 244 244 251 253 254 257 256 260 260 266 265 266 270 273 270 270 270 269 271 276 281 283 288 290 290 291 292 293 295 297 296 296 297 298 299 300 300 300 299 300 301 301 301
Height
10871 10876 10879 10882 10886 10888 10891 10891 10890 10891 10892 10891 10890 10889 10886 10886 10883 10881 10876 10868 10860 10855 10851 10849 10849 10847 10846 10848 10850 10850 10851 10851 10853 10854 10854 10856 10856 10859 10860 10861 10862 10861 10861 10861 10861 10861 10860 10859 10858
10867 10872 10876 10879 10883 10886 10888 10889 10888 10888 10889 10889 10889 10887 10885 10883 10882 10878 10874 10867 10860 10854 10850 10847 10846 10846 10845 10845 10846 10847 10848 10849 10850 10851 10851 10852 10853 10855 10856 10856 10857 10857 10857 10856 10856 10856 10855 10854 10853
10864 10869 10873 10875 10881 10882 10884 10885 10885 10886 10887 10887 10886 10885 10883 10882 10880 10877 10872 10866 10860 10854 10851 10847 10845 10845 10844 10843 10844 10845 10846 10846 10847 10847 10849 10850 10850 10851 10852 10852 10853 10853 10852 10852 10852 10852 10851 10849 10848
10862 10866 10870 10875 10876 10878 10880 10881 10883 10884 10885 10885 10884 10883 10881 10881 10878 10875 10871 10865 10860 10857 10852 10848 10845 10843 10842 10842 10843 10844 10844 10845 10844 10845 10846 10847 10848 10848 10849 10849 10850 10850 10850 10849 10848 10847 10846 10845 10844
10855 10861 10866 10869 10872 10875 10877 10879 10881 10882 10884 10883 10883 10882 10880 10878 10878 10874 10871 10865 10861 10857 10852 10849 10845 10844 10843 10842 10842 10843 10844 10843 10843 10844 10844 10845 10845 10846 10847 10847 10848 10848 10847 10846 10844 10844 10842 10841 10839
10851 10856 10861 10865 10867 10871 10873 10876 10878 10880 10881 10881 10882 10881 10880 10876 10877 10874 10870 10867 10860 10858 10854 10851 10847 10845 10843 10842 10842 10842 10843 10843 10843 10844 10844 10845 10844 10845 10845 10845 10845 10845 10844 10842 10841 10840 10839 10838 10836
10844 10850 10855 10861 10863 10867 10870 10872 10875 10876 10878 10879 10880 10879 10878 10876 10876 10873 10871 10868 10862 10857 10855 10852 10850 10848 10845 10843 10842 10842 10842 10843 10844 10844 10844 10844 10844 10844 10844 10843 10842 10842 10841 10840 10839 10838 10837 10835 10833
10837 10843 10850 10854 10860 10863 10865 10868 10872 10873 10875 10877 10878 10877 10876 10876 10874 10873 10870 10868 10865 10861 10858 10854 10852 10850 10847 10845 10844 10843 10844 10844 10844 10844 10845 10845 10845 10844 10843 10842 10841 10840 10839 10837 10835 10834 10832 10830 10828
10829 10837 10844 10850 10854 10857 10859 10864 10867 10870 10872 10874 10875 10874 10875 10874 10872 10871 10869 10867 10866 10863 10859 10858 10855 10853 10850 10848 10846 10845 10844 10844 10844 10844 10844 10844 10843 10843 10842 10841 10839 10838 10836 10835 10833 10830 10828 10826 10823
10825 10830 10837 10843 10850 10852 10855 10859 10864 10867 10869 10871 10872 10872 10871 10871 10870 10870 10868 10866 10866 10863 10860 10859 10857 10855 10852 10850 10848 10848 10847 10846 10845 10844 10843 10842 10842 10841 10839 10838 10836 10835 10833 10831 10829 10827 10824 10822 10819
10817 10823 10832 10839 10841 10848 10851 10855 10858 10861 10864 10866 10867 10868 10867 10867 10867 10867 10865 10864 10865 10864 10863 10859 10857 10856 10855 10853 10851 10850 10849 10848 10847 10845 10844 10842 10841 10839 10837 10835 10834 10832 10830 10828 10826 10823 10820 10817 10814
10811 10819 10826 10830 10837 10841 10846 10850 10854 10858 10860 10863 10864 10865 10864 10864 10863 10863 10862 10862 10862 10861 10862 10860 10856 10856 10854 10852 10851 10850 10848 10847 10845 10844 10843 10842 10840 10838 10836 10834 10832 10829 10827 10824 10820 10817 10815 10812 10810
10801 10814 10818 10825 10831 10835 10839 10845 10849 10854 10855 10858 10860 10859 10860 10859 10859 10860 10859 10860 10860 10859 10858 10857 10856 10854 10853 10852 10851 10849 10847 10846 10845 10844 10842 10841 10839 10837 10835 10833 10830 10827 10824 10821 10818 10815 10812 10809 10806
10794 10804 10811 10817 10823 10828 10833 10840 10844 10848 10850 10853 10853 10853 10854 10855 10855 10855 10856 10856 10856 10857 10857 10857 10855 10853 10852 10850 10849 10848 10846 10845 10843 10841 10840 10837 10835 10833 10831 10829 10826 10823 10820 10817 10814 10811 10807 10804 10800
10790 10794 10804 10808 10816 10820 10826 10833 10838 10842 10845 10848 10849 10849 10849 10850 10851 10852 10852 10854 10852 10853 10853 10854 10853 10852 10850 10848 10846 10845 10844 10842 10841 10839 10837 10835 10832 10831 10828 10825 10822 10819 10815 10812 10808 10805 10801 10798 10794
10775 10787 10797 10800 10808 10814 10820 10827 10833 10837 10840 10842 10843 10843 10844 10844 10846 10848 10849 10849 10849 10849 10849 10849 10849 10847 10846 10845 10843 10841 10841 10839 10838 10836 10834 10831 10829 10826 10824 10821 10817 10814 10811 10807 10803 10799 10795 10791 10787
10771 10783 10788 10793 10800 10806 10810 10820 10820 10829 10833 10835 10837 10838 10839 10840 10842 10842 10843 10844 10844 10844 10844 10844 10844 10843 10842 10840 10839 10838 10837 10837 10836 10833 10831 10828 10826 10823 10820 10816 10812 10809 10805 10801 10797 10793 10788 10785 10780
10767 10772 10778 10785 10790 10795 10802 10810 10812 10822 10826 10829 10831 10833 10835 10835 10835 10837 10836 10838 10839 10838 10837 10838 10839 10837 10836 10836 10835 10833 10832 10831 10830 10828 10827 10824 10822 10818 10814 10810 10806 10801 10797 10793 10788 10784 10780 10776 10773
10746 10756 10768 10770 10777 10786 10790 10800 10807 10813 10819 10821 10823 10826 10827 10827 10828 10829 10830 10829 10831 10832 10832 10832 10832 10831 10830 10830 10829 10828 10827 10827 10825 10821 10820 10817 10813 10811 10808 10803 10799 10793 10789 10784 10780 10776 10771 10765 10762
10741 10750 10757 10769 10766 10774 10784 10792 10797 10804 10810 10814 10817 10820 10822 10821 10821 10823 10823 10823 10824 10825 10825 10825 10825 10824 10824 10824 10823 10821 10819 10819 10817 10814 10812 10809 10806 10801 10798 10795 10790 10785 10778 10774 10770 10765 10759 10754 10749
10727 10738 10743 10748 10752 10765 10772 10781 10789 10796 10800 10806 10809 10812 10813 10811 10813 10814 10815 10816 10817 10817 10818 10818 10818 10818 10817 10814 10814 10811 10810 10807 10807 10804 10802 10800 10797 10794 10789 10784 10780 10775 10768 10763 10759 10755 10749 10745 10736
10711 10722 10731 10738 10739 10754 10760 10772 10780 10787 10793 10798 10800 10802 10804 10802 10803 10805 10807 10808 10808 10809 10809 10808 10808 10808 10808 10804 10804 10802 10800 10797 10795 10791 10789 10786 10786 10782 10778 10773 10768 10764 10760 10752 10747 10742 10736 10731 10725
10701 10708 10720 10720 10724 10741 10750 10759 10772 10779 10786 10788 10790 10790 10791 10794 10794 10796 10796 10797 10797 10798 10798 10798 10798 10797 10796 10797 10792 10789 10790 10787 10783 10779 10775 10772 10769 10768 10764 10760 10755 10751 10745 10740 10733 10726 10719 10714 10708
10686 10694 10704 10707 10714 10728 10740 10750 10762 10774 10772 10774 10776 10780 10780 10783 10785 10785 10786 10787 10787 10787 10786 10786 10786 10786 10784 10784 10784 10780 10776 10774 10770 10767 10762 10757 10753 10749 10745 10742 10739 10735 10730 10724 10718 10711 10704 10697 10689
10675 10684 10689 10697 10707 10731 10731 10738 10757 10759 10758 10755 10761 10765 10768 10772 10773 10774 10774 10775 10774 10774 10774 10773 10772 10772 10772 10770 10769 10768 10764 10759 10756 10752 10748 10743 10738 10733 10728 10723 10719 10715 10710 10705 10699 10692 10684 10677 10669
10668 10667 10678 10689 10701 10714 10712 10731 10745 10740 10740 10745 10748 10751 10754 10758 10760 10761 10761 10762 10762 10761 10760 10759 10757 10758 10757 10756 10753 10752 10749 10746 10741 10736 10732 10729 10723 10718 10712 10707 10701 10696 10690 10684 10677 10670 10663 10655 10648
10650 10654 10662 10673 10684 10692 10702 10720 10729 10729 10734 10732 10734 10736 10738 10741 10744 10747 10747 10747 10749 10747 10746 10745 10743 10742 10740 10739 10737 10734 10732 10728 10724 10719 10715 10711 10706 10700 10695 10689 10683 10677 10671 10665 10657 10650 10643 10634 10627
10629 10633 10636 10651 10666 10679 10695 10705 10722 10719 10715 10717 10716 10721 10726 10727 10728 10728 10729 10731 10733 10732 10732 10730 10729 10726 10724 10722 10720 10716 10714 10711 10707 10702 10698 10693 10687 10682 10677 10671 10664 10657 10650 10643 10635 10628 10620 10612 10602
10611 10622 10628 10639 10648 10665 10678 10694 10699 10700 10697 10704 10707 10707 10707 10707 10710 10712 10715 10715 10716 10717 10715 10714 10711 10709 10708 10706 10702 10699 10697 10692 10688 10684 10679 10674 10668 10661 10655 10649 10642 10636 10629 10622 10614 10605 10597 10589 10580
10591 10605 10605 10615 10639 10644 10654 10672 10685 10685 10685 10686 10689 10689 10689 10690 10691 10695 10697 10699 10700 10699 10697 10694 10693 10691 10690 10687 10684 10681 10678 10674 10669 10664 10658 10653 10647 10642 10634 10627 10620 10613 10605 10599 10591 10582 10573 10565 10556